Location: Henderson
(36.0400°N, 114.9810°W)
Time: 13:47:16
(UTC-08:00)

Daily predictions for brighter satellites

Satellite Brightness Start Highest point End
(mag) Time Altitude Azimuth Time Altitude Azimuth Time Altitude Azimuth
Cosmos 1048 Rocket 4.0 16:42:38 10° NNW 16:47:57 70° ENE 16:53:17 10° SSE
Cosmos 1844 4.0 16:49:32 10° S 16:54:51 49° ESE 17:00:12 10° NNE
AQUARIUS 4.3 16:52:07 10° SSE 16:56:28 52° ENE 17:00:51 10° N
CRYOSAT 2 4.4 16:52:41 10° NNE 16:57:33 61° E 17:02:22 10° S
MOS 1 4.3 16:56:18 10° SSE 17:01:55 69° ENE 17:07:33 10° N
CORIOLIS 4.2 16:57:55 10° SSE 17:03:12 57° ENE 17:08:30 10° N
SMAP 3.0 17:00:55 10° SSE 17:05:31 66° ENE 17:10:09 10° N
PAYLOAD A 4.1 17:00:54 10° S 17:05:38 77° WSW 17:10:33 10° NNW
YAOGAN 1 2.6 17:01:27 10° SSE 17:05:42 60° ENE 17:09:59 10° N
SPOT 3 Rocket 3.5 17:00:39 10° SSE 17:05:48 71° ENE 17:10:59 10° N
ASTRO F (AKARI) 4.3 17:09:16 10° NNE 17:12:22 56° ESE 17:15:27 10° S
Cosmos 2278 Rocket 2.7 17:07:20 10° S 17:12:35 41° ESE 17:17:50 10° NE
COSMOS 2406 3.3 17:11:32 10° NNW 17:17:17 90° ENE 17:23:02 10° SSE
OTV 4 0.4 17:15:47 10° W 17:18:47 81° SSW 17:21:18 14° ESE
FALCON 9 R/B 4.4 16:45:46 10° WSW 17:19:18 69° SSE 17:26:28 14° E
SL-8 Rocket 3.9 17:14:43 10° N 17:20:54 80° E 17:27:03 10° S
Cosmos 1484 Rocket 3.3 17:17:38 10° SE 17:21:03 33° ENE 17:24:27 10° N
SJ-7 4.5 17:18:00 10° SSE 17:22:12 90° S 17:26:28 10° NNW
IDEFIX/ARIANE 42P 2.6 17:17:03 10° SSE 17:22:15 85° WSW 17:27:29 10° NNW
USA 32 4.0 17:17:03 10° S 17:22:16 90° E 17:27:31 10° N
EP 2 4.3 17:21:40 10° SSW 17:24:16 55° ESE 17:25:44 22° NE
Meteor 1-5 Rocket 4.4 17:22:17 10° NNW 17:27:42 73° W 17:33:16 10° S
SKYMED 2 3.7 17:24:55 10° NNE 17:29:09 52° E 17:33:22 10° S
BREEZE M DEB (TANK) 3.4 17:17:59 10° SW 17:30:00 70° SE 17:32:37 20° ENE
CZ-4 R/B 4.4 17:26:19 10° SSE 17:30:26 88° ENE 17:34:37 10° NNW
Cosmos 1455 Rocket 3.0 17:26:41 10° N 17:31:03 60° E 17:35:24 10° SSE
Cosmos 2366 rocket 4.0 17:24:42 10° N 17:31:04 70° E 17:37:19 10° SSE
Cosmos 2218 Rocket 4.0 17:26:41 10° N 17:33:00 83° E 17:39:12 10° S
Meteor 2-19 Rocket 4.4 17:28:13 10° N 17:34:17 89° W 17:40:20 10° S
Cosmos 1959 Rocket 4.5 17:30:41 10° N 17:36:53 89° E 17:43:08 10° S
Cosmos 2082 Rocket 3.5 17:36:18 10° NNE 17:39:41 19° NE 17:39:41 19° NE
SL-8 R/B 3.7 17:39:31 10° SW 17:44:18 83° NW 17:47:02 26° NE
Okean 1 3.2 17:41:44 10° S 17:45:45 82° E 17:49:49 10° N
Cosmos 1833 Rocket 4.3 17:42:18 10° NNE 17:44:32 16° NE 17:44:32 16° NE
Cosmos 1500 3.4 17:44:29 10° N 17:48:08 44° E 17:51:49 10° SSE
Cosmos 494 Rocket 3.9 17:43:10 10° NNW 17:48:24 69° ENE 17:53:37 10° SSE
Hubble Space Telescope 3.4 17:46:54 10° SW 17:49:09 14° SSW 17:51:23 10° SSE
Meteor 1-28 Rocket 3.3 17:50:05 29° NE 17:51:46 52° E 17:55:27 10° S
NOSS 3-3 (A) 3.9 17:45:52 10° SSW 17:52:01 87° ESE 17:57:10 17° NNE
NOSS 3-3 (C) 3.9 17:45:59 10° SSW 17:52:06 86° ESE 17:57:13 18° NNE
ISS -1.0 17:51:02 10° WNW 17:53:14 16° NNW 17:54:29 14° N
NOAA 12 4.3 17:50:49 10° SE 17:55:50 45° ENE 18:00:50 10° N
Cosmos 1809 Rocket 4.4 17:49:51 10° N 17:55:57 60° E 18:01:57 10° SSE
Meteor 2-4 Rocket 4.5 17:56:19 10° SSE 18:00:09 28° ESE 18:00:09 28° ESE
Cosmos 2251 Rocket 3.7 17:57:07 10° NNW 18:02:28 75° WSW 18:07:44 10° S
ATLAS 2AS CENTAUR R/B 2.9 17:55:47 10° NNW 18:03:52 87° ENE 18:11:19 10° SSE
SL-27 R/B 3.9 18:00:51 10° NNW 18:04:19 41° WSW 18:07:44 10° S
Cosmos 1812 4.3 18:02:06 10° SSW 18:05:39 35° W 18:09:13 10° NNW
Tiangong 1 1.9 18:03:30 10° SW 18:05:52 40° S 18:05:52 40° S
Cosmos 1821 Rocket 4.3 18:00:49 10° N 18:06:27 38° ENE 18:12:04 10° SE
Cosmos 1346 Rocket 2.7 18:02:36 10° S 18:06:32 88° W 18:08:21 31° N
OE (NEXTSAT) 4.3 18:07:39 10° WSW 18:11:13 84° NNW 18:11:16 83° N
TIMED 4.4 18:12:12 10° S 18:16:31 67° ESE 18:16:38 67° E
COSMO-SKYMED 1 3.8 18:13:03 10° N 18:17:08 41° WNW 18:21:12 10° SW
CZ-3B DEB 3.5 18:14:58 10° W 18:18:58 36° NNW 18:24:12 20° NNE
Nadezhda 3 Rocket 4.0 18:18:08 10° S 18:24:17 79° W 18:30:33 10° N
GEOS 3 Rocket 3.6 18:20:45 10° SSE 18:25:52 77° WSW 18:31:00 10° NW
SL-24 R/B - RUBIN 2 4.4 18:20:45 10° SSW 18:26:56 89° NW 18:29:42 38° NNE
Cosmos 1975 4.3 18:26:28 10° NNW 18:30:13 37° W 18:33:57 10° SSW
Cosmos 2297 3.8 18:34:17 10° SSW 18:39:55 74° WNW 18:41:27 49° N
OTV 4 4.1 18:52:44 10° WSW 18:52:57 11° WSW 18:52:57 11° WSW
Cosmos 2278 Rocket 4.1 18:52:10 10° WSW 18:56:46 25° WNW 19:00:22 14° N
Cosmos 2082 Rocket 3.8 19:19:08 10° NNW 19:21:38 26° NW 19:21:38 26° NW
ATLAS 3B CENTAUR R/B 3.7 19:27:28 10° W 19:37:44 42° SW 19:37:44 42° SW
